User: anonymous   Login
Location: Seminole
(32.7190°N, 102.6440°W)
Time: 11:04:44
(UTC-05:00)
Language:

Meteor 2-10 - Orbit

View from above orbital plane
View from above orbital plane
View from above satellite
View from above satellite

Ground track
Ground track

The orbit data is extracted from the following two-line orbital elements,

1 14452U 83109A   16151.41257353  .00000037  00000-0  93147-5 0  9990
2 14452  81.1621 102.6692 0091915  51.7979 309.1432 14.26397069694453
Epoch (UTC): 30 May 2016 09:54:06
Eccentricity: 0.0091915
inclination: 81.1621°
perigee height: 738 km
apogee height: 870 km
right ascension of ascending node: 102.6692°
argument of perigee: 51.7979°
revolutions per day: 14.26397069
mean anomaly at epoch: 309.1432°
orbit number at epoch: 69445

The dashed part of the orbit path shows where the satellite is in the earth's shadow,  

DLR